| time (UTC) | temp F | wind direction | speed knots | gust knots | rain 1hr in | rain 24hr in | rain mn in | humidity % | barometer mb |
| 20260509150021 | 51 | 194 | 6.1 | 13.9 | 0.00 | 0.00 | 0.00 | 64 | 1000.2 |
| 20260509144520 | 51 | 258 | 4.3 | 16.5 | 0.00 | 0.00 | 0.00 | 67 | 999.9 |
| 20260509143019 | 52 | 219 | 5.2 | 13.9 | 0.00 | 0.00 | 0.00 | 67 | 999.6 |
| 20260509141522 | 53 | 234 | 2.6 | 15.6 | 0.00 | 0.00 | 0.00 | 67 | 998.7 |
| 20260509140017 | 54 | 245 | 4.3 | 10.4 | 0.00 | 0.00 | 0.00 | 66 | 998.5 |
| 20260509134517 | 56 | 241 | 6.1 | 10.4 | 0.00 | 0.00 | 0.00 | 66 | 998.1 |
| 20260509133021 | 56 | 191 | 5.2 | 15.6 | 0.00 | 0.00 | 0.00 | 67 | 997.9 |
| 20260509131514 | 56 | 220 | 5.2 | 8.7 | 0.00 | 0.00 | 0.00 | 71 | 997.6 |
| 20260509130014 | 56 | 227 | 3.5 | 10.4 | 0.00 | 0.00 | 0.00 | 72 | 997.6 |
| 20260509124514 | 56 | 201 | 7.0 | 11.3 | 0.00 | 0.00 | 0.00 | 72 | 997.7 |
| 20260509123010 | 55 | 173 | 3.5 | 8.7 | 0.00 | 0.00 | 0.00 | 74 | 997.7 |
| 20260509121508 | 53 | 240 | 6.1 | 14.8 | 0.00 | 0.00 | 0.00 | 75 | 997.7 |
| 20260509120008 | 53 | 215 | 4.3 | 13.0 | 0.00 | 0.00 | 0.00 | 75 | 997.8 |
| 20260509114507 | 53 | 150 | 5.2 | 13.9 | 0.00 | 0.00 | 0.00 | 74 | 997.8 |
| 20260509113007 | 53 | 208 | 5.2 | 13.0 | 0.00 | 0.00 | 0.00 | 73 | 997.8 |
| 20260509111505 | 54 | 144 | 6.1 | 14.8 | 0.00 | 0.00 | 0.00 | 71 | 997.9 |
| 20260509110005 | 54 | 190 | 5.2 | 11.3 | 0.00 | 0.00 | 0.00 | 71 | 997.7 |
| 20260509104504 | 54 | 213 | 7.0 | 14.8 | 0.00 | 0.00 | 0.00 | 70 | 997.6 |
| 20260509103001 | 54 | 161 | 7.0 | 13.9 | 0.00 | 0.00 | 0.00 | 70 | 998.1 |
| 20260509101625 | 51 | 215 | 3.5 | 9.6 | 0.00 | 0.00 | 0.00 | 71 | 998.2 |
| 20260509100059 | 49 | 177 | 0.0 | 2.6 | 0.00 | 0.00 | 0.00 | 71 | 998.3 |
| 20260509094559 | 50 | 177 | 0.0 | 1.7 | 0.00 | 0.00 | 0.00 | 67 | 998.6 |
| 20260509093049 | 52 | 177 | 0.0 | 2.6 | 0.00 | 0.00 | 0.00 | 64 | 999.0 |
| 20260509091551 | 53 | 188 | 0.0 | 4.3 | 0.00 | 0.00 | 0.00 | 60 | 999.1 |
| 20260509090053 | 53 | 184 | 0.9 | 7.0 | 0.00 | 0.00 | 0.00 | 58 | 999.4 |
| 20260509084543 | 53 | 206 | 2.6 | 7.8 | 0.00 | 0.00 | 0.00 | 55 | 999.7 |
| 20260509083041 | 53 | 160 | 3.5 | 12.2 | 0.00 | 0.00 | 0.00 | 52 | 999.9 |
| 20260509081535 | 53 | 163 | 2.6 | 8.7 | 0.00 | 0.00 | 0.00 | 49 | 1000.2 |
| 20260509080043 | 54 | 211 | 5.2 | 13.9 | 0.00 | 0.00 | 0.00 | 47 | 1000.4 |
| 20260509074538 | 54 | 192 | 2.6 | 8.7 | 0.00 | 0.00 | 0.00 | 45 | 1000.3 |
| 20260509073038 | 54 | 205 | 4.3 | 8.7 | 0.00 | 0.00 | 0.00 | 44 | 1000.4 |
| 20260509071526 | 55 | 184 | 4.3 | 12.2 | 0.00 | 0.00 | 0.00 | 43 | 1000.8 |
| 20260509070024 | 54 | 146 | 1.7 | 7.0 | 0.00 | 0.00 | 0.00 | 46 | 1001.0 |
| 20260509064521 | 54 | 187 | 3.5 | 8.7 | 0.00 | 0.00 | 0.00 | 47 | 1001.3 |
| 20260509063028 | 54 | 159 | 2.6 | 7.8 | 0.00 | 0.00 | 0.00 | 46 | 1001.7 |
| 20260509061516 | 53 | 196 | 3.5 | 7.8 | 0.00 | 0.00 | 0.00 | 46 | 1001.9 |
| 20260509060022 | 54 | 165 | 2.6 | 7.8 | 0.00 | 0.00 | 0.00 | 46 | 1002.2 |
| 20260509054511 | 54 | 193 | 2.6 | 6.1 | 0.00 | 0.00 | 0.00 | 46 | 1002.3 |
| 20260509053006 | 54 | 194 | 0.9 | 7.0 | 0.00 | 0.00 | 0.00 | 47 | 1002.4 |
| 20260509051512 | 53 | 168 | 1.7 | 6.1 | 0.00 | 0.00 | 0.00 | 52 | 1002.6 |
| 20260509050004 | 53 | 183 | 0.9 | 2.6 | 0.00 | 0.00 | 0.00 | 52 | 1002.8 |
| 20260509044606 | 54 | 183 | 1.7 | 5.2 | 0.00 | 0.00 | 0.00 | 49 | 1003.2 |
| 20260509043058 | 54 | 199 | 2.6 | 7.8 | 0.00 | 0.00 | 0.00 | 48 | 1003.4 |
| 20260509041550 | 53 | 198 | 2.6 | 7.8 | 0.00 | 0.00 | 0.00 | 49 | 1003.7 |
| 20260509034545 | 54 | 188 | 2.6 | 7.0 | 0.00 | 0.00 | 0.00 | 46 | 1004.1 |
| 20260509033107 | 54 | 164 | 4.3 | 7.0 | 0.00 | 0.00 | 0.00 | 47 | 1004.2 |
| 20260509031542 | 52 | 202 | 2.6 | 6.1 | 0.00 | 0.00 | 0.00 | 51 | 1004.3 |
| 20260509030042 | 51 | 122 | 0.9 | 3.5 | 0.00 | 0.00 | 0.00 | 57 | 1004.5 |
| 20260509024552 | 50 | 59 | 0.0 | 1.7 | 0.00 | 0.00 | 0.00 | 57 | 1004.5 |
| 20260509023041 | 49 | 58 | 0.0 | 1.7 | 0.00 | 0.00 | 0.00 | 61 | 1004.6 |
| 20260509021540 | 48 | 58 | 0.0 | 0.0 | 0.00 | 0.00 | 0.00 | 66 | 1004.8 |
| 20260509020039 | 48 | 58 | 0.0 | 0.0 | 0.00 | 0.00 | 0.00 | 65 | 1004.7 |
| 20260509014542 | 48 | 58 | 0.0 | 0.9 | 0.00 | 0.00 | 0.00 | 66 | 1004.7 |
| 20260509013038 | 48 | 58 | 0.0 | 1.7 | 0.00 | 0.00 | 0.00 | 68 | 1004.7 |
| 20260509011544 | 49 | 59 | 0.0 | 1.7 | 0.00 | 0.00 | 0.00 | 63 | 1004.7 |
| 20260509010040 | 53 | 58 | 0.0 | 5.2 | 0.00 | 0.00 | 0.00 | 55 | 1004.7 |
| 20260509003036 | 58 | 186 | 0.9 | 5.2 | 0.00 | 0.00 | 0.00 | 39 | 1004.6 |
| 20260509001536 | 59 | 200 | 2.6 | 10.4 | 0.00 | 0.00 | 0.00 | 38 | 1004.6 |
| 20260509000033 | 59 | 159 | 2.6 | 7.0 | 0.00 | 0.00 | 0.00 | 38 | 1004.7 |
| 20260508234533 | 60 | 194 | 2.6 | 7.8 | 0.00 | 0.00 | 0.00 | 37 | 1005.0 |
| 20260508233036 | 60 | 215 | 1.7 | 6.1 | 0.00 | 0.00 | 0.00 | 38 | 1005.1 |
| 20260508231530 | 60 | 204 | 5.2 | 7.8 | 0.00 | 0.00 | 0.00 | 37 | 1005.1 |
| 20260508230030 | 61 | 215 | 3.5 | 9.6 | 0.00 | 0.00 | 0.00 | 36 | 1005.1 |
| 20260508224529 | 61 | 205 | 5.2 | 12.2 | 0.00 | 0.00 | 0.00 | 36 | 1005.1 |
| 20260508223030 | 62 | 268 | 4.3 | 12.2 | 0.00 | 0.00 | 0.00 | 36 | 1005.1 |
| 20260508221528 | 63 | 194 | 6.1 | 10.4 | 0.00 | 0.00 | 0.00 | 34 | 1005.1 |
| 20260508220026 | 63 | 240 | 1.7 | 10.4 | 0.00 | 0.00 | 0.00 | 34 | 1005.4 |
| 20260508214532 | 62 | 202 | 4.3 | 11.3 | 0.00 | 0.00 | 0.00 | 34 | 1005.5 |
| 20260508213025 | 64 | 188 | 6.1 | 12.2 | 0.00 | 0.00 | 0.00 | 32 | 1005.6 |
| 20260508211526 | 64 | 192 | 8.7 | 14.8 | 0.00 | 0.00 | 0.00 | 32 | 1005.6 |
| 20260508210032 | 65 | 157 | 2.6 | 12.2 | 0.00 | 0.00 | 0.00 | 33 | 1005.5 |
| 20260508204521 | 63 | 248 | 3.5 | 9.6 | 0.00 | 0.00 | 0.00 | 34 | 1005.8 |
| 20260508203024 | 62 | 258 | 7.8 | 13.9 | 0.00 | 0.00 | 0.00 | 35 | 1006.1 |
| 20260508201517 | 62 | 173 | 5.2 | 21.7 | 0.00 | 0.00 | 0.00 | 34 | 1006.3 |
| 20260508200017 | 62 | 182 | 7.0 | 16.5 | 0.00 | 0.00 | 0.00 | 34 | 1006.5 |
| 20260508194513 | 62 | 212 | 5.2 | 18.2 | 0.00 | 0.00 | 0.00 | 35 | 1006.7 |
| 20260508193013 | 61 | 138 | 7.8 | 20.9 | 0.00 | 0.00 | 0.00 | 36 | 1006.9 |
| 20260508191510 | 62 | 339 | 4.3 | 17.4 | 0.00 | 0.00 | 0.00 | 36 | 1007.0 |
| 20260508190007 | 62 | 281 | 5.2 | 16.5 | 0.00 | 0.00 | 0.00 | 36 | 1007.4 |
| 20260508184509 | 62 | 259 | 6.1 | 20.0 | 0.00 | 0.00 | 0.00 | 36 | 1007.9 |
| 20260508183005 | 61 | 231 | 5.2 | 26.1 | 0.00 | 0.00 | 0.00 | 36 | 1007.6 |
| 20260508181503 | 60 | 266 | 5.2 | 15.6 | 0.00 | 0.00 | 0.00 | 35 | 1007.9 |
| 20260508180003 | 61 | 163 | 5.2 | 18.2 | 0.00 | 0.00 | 0.00 | 36 | 1007.9 |
| 20260508174601 | 60 | 276 | 6.1 | 14.8 | 0.00 | 0.00 | 0.00 | 36 | 1008.0 |
| 20260508173059 | 60 | 217 | 7.0 | 17.4 | 0.00 | 0.00 | 0.00 | 36 | 1008.2 |
| 20260508171557 | 60 | 259 | 9.6 | 19.1 | 0.00 | 0.00 | 0.00 | 35 | 1008.4 |
| 20260508170059 | 58 | 205 | 8.7 | 16.5 | 0.00 | 0.00 | 0.00 | 37 | 1008.7 |
| 20260508164553 | 59 | 206 | 5.2 | 17.4 | 0.00 | 0.00 | 0.00 | 37 | 1008.7 |
| 20260508163104 | 58 | 265 | 7.0 | 20.9 | 0.00 | 0.00 | 0.00 | 37 | 1008.8 |
| 20260508161556 | 57 | 245 | 5.2 | 14.8 | 0.00 | 0.00 | 0.00 | 39 | 1009.0 |
| 20260508160045 | 56 | 238 | 7.8 | 17.4 | 0.00 | 0.00 | 0.00 | 42 | 1009.2 |
| 20260508154543 | 56 | 184 | 4.3 | 20.0 | 0.00 | 0.00 | 0.00 | 45 | 1009.3 |
| 20260508153054 | 54 | 206 | 5.2 | 13.0 | 0.00 | 0.00 | 0.00 | 45 | 1009.4 |
| 20260508151538 | 55 | 267 | 7.0 | 16.5 | 0.00 | 0.00 | 0.00 | 46 | 1009.6 |